When you browse on this site, cookies collect data to enhance your experience and personalize the content and advertising you see.
Visit our Privacy Policy to learn more. By continuing to use the site, you agree to this use of cookies and data.
  • In Österreich
  • Länderverzeichnis
  • Für 7 Tage
  • Wassertemperatur
  • Wetterkarte
  • News
  • Widgets
  • user-avatar
    Anmelden

    Stündliche Wetter Wroclaw

    Heute, 19 September, Donnerstag

    Zeit Temperatur Niederschläge Wind Luftdruck Luftfeuchtigkeit
    00:00 +9°C° 0 mm 3 m/S 756 mmHg 73%
    01:00 +8°C° 0 mm 3 m/S 756 mmHg 76%
    02:00 +8°C° 0.1 mm 3 m/S 756 mmHg 80%
    03:00 +7°C° 0.1 mm 3 m/S 756 mmHg 84%
    04:00 +6°C° 0.1 mm 4 m/S 756 mmHg 88%
    05:00 +6°C° 0 mm 4 m/S 757 mmHg 87%
    06:00 +6°C° 0 mm 5 m/S 757 mmHg 86%
    07:00 +6°C° 0 mm 5 m/S 757 mmHg 85%
    08:00 +8°C° 0 mm 5 m/S 757 mmHg 79%
    09:00 +10°C° 0 mm 6 m/S 758 mmHg 73%
    10:00 +11°C° 0 mm 6 m/S 758 mmHg 68%
    11:00 +13°C° 0.2 mm 6 m/S 758 mmHg 63%
    12:00 +14°C° 0.2 mm 6 m/S 758 mmHg 58%
    13:00 +15°C° 0.2 mm 6 m/S 757 mmHg 53%
    14:00 +15°C° 0.1 mm 6 m/S 757 mmHg 53%
    15:00 +14°C° 0.1 mm 6 m/S 758 mmHg 52%
    16:00 +14°C° 0.1 mm 6 m/S 758 mmHg 52%
    17:00 +13°C° 0 mm 5 m/S 758 mmHg 56%
    18:00 +11°C° 0 mm 4 m/S 758 mmHg 61%
    19:00 +10°C° 0 mm 3 m/S 758 mmHg 66%
    20:00 +9°C° 0 mm 3 m/S 759 mmHg 68%
    21:00 +9°C° 0 mm 2 m/S 759 mmHg 70%
    22:00 +8°C° 0 mm 2 m/S 760 mmHg 72%
    23:00 +8°C° 0 mm 2 m/S 760 mmHg 75%

    Morgen, 20 September, Freitag

    Zeit Temperatur Niederschläge Wind Luftdruck Luftfeuchtigkeit
    00:00 +7°C° 0 mm 2 m/S 760 mmHg 78%
    01:00 +7°C° 0 mm 2 m/S 760 mmHg 81%
    02:00 +7°C° 0 mm 2 m/S 760 mmHg 84%
    03:00 +6°C° 0 mm 2 m/S 760 mmHg 87%
    04:00 +6°C° 0 mm 2 m/S 759 mmHg 90%
    05:00 +5°C° 0 mm 3 m/S 759 mmHg 88%
    06:00 +7°C° 0 mm 3 m/S 759 mmHg 87%
    07:00 +7°C° 0 mm 3 m/S 759 mmHg 85%
    08:00 +9°C° 0 mm 3 m/S 760 mmHg 77%
    09:00 +11°C° 0 mm 4 m/S 760 mmHg 69%
    10:00 +13°C° 0 mm 4 m/S 760 mmHg 60%
    11:00 +13°C° 0 mm 4 m/S 760 mmHg 57%
    12:00 +14°C° 0 mm 4 m/S 759 mmHg 53%
    13:00 +15°C° 0 mm 4 m/S 759 mmHg 50%
    14:00 +16°C° 0 mm 3 m/S 759 mmHg 50%
    15:00 +16°C° 0 mm 3 m/S 758 mmHg 50%
    16:00 +16°C° 0 mm 3 m/S 758 mmHg 50%
    17:00 +14°C° 0 mm 2 m/S 758 mmHg 56%
    18:00 +12°C° 0 mm 2 m/S 758 mmHg 62%
    19:00 +11°C° 0 mm 1 m/S 759 mmHg 68%
    20:00 +11°C° 0 mm 1 m/S 759 mmHg 70%
    21:00 +9°C° 0 mm 2 m/S 759 mmHg 72%
    22:00 +9°C° 0 mm 2 m/S 759 mmHg 74%
    23:00 +8°C° 0 mm 2 m/S 759 mmHg 76%

    übermorgen, 21 September, Samstag

    Zeit Temperatur Niederschläge Wind Luftdruck Luftfeuchtigkeit
    00:00 +8°C° 0 mm 2 m/S 759 mmHg 77%
    01:00 +9°C° 0 mm 1 m/S 759 mmHg 78%
    02:00 +8°C° 0 mm 1 m/S 758 mmHg 79%
    03:00 +8°C° 0 mm 1 m/S 758 mmHg 80%
    04:00 +8°C° 0 mm 1 m/S 758 mmHg 81%
    05:00 +9°C° 0 mm 1 m/S 758 mmHg 78%
    06:00 +9°C° 0 mm 1 m/S 758 mmHg 76%
    07:00 +10°C° 0 mm 1 m/S 758 mmHg 73%
    08:00 +12°C° 0 mm 1 m/S 758 mmHg 66%
    09:00 +14°C° 0 mm 1 m/S 757 mmHg 59%
    10:00 +16°C° 0 mm 1 m/S 757 mmHg 52%
    11:00 +18°C° 0 mm 1 m/S 757 mmHg 48%
    12:00 +19°C° 0 mm 1 m/S 757 mmHg 45%
    13:00 +20°C° 0 mm 1 m/S 756 mmHg 42%
    14:00 +20°C° 0 mm 1 m/S 756 mmHg 42%
    15:00 +21°C° 0 mm 1 m/S 755 mmHg 43%
    16:00 +21°C° 0 mm 1 m/S 755 mmHg 43%
    17:00 +18°C° 0 mm 2 m/S 755 mmHg 49%
    18:00 +16°C° 0 mm 2 m/S 755 mmHg 55%
    19:00 +14°C° 0 mm 2 m/S 755 mmHg 60%
    20:00 +14°C° 0 mm 2 m/S 755 mmHg 62%
    21:00 +13°C° 0 mm 2 m/S 755 mmHg 65%
    22:00 +12°C° 0 mm 2 m/S 755 mmHg 67%
    23:00 +12°C° 0 mm 2 m/S 754 mmHg 67%

    22 September, Sonntag

    Zeit Temperatur Niederschläge Wind Luftdruck Luftfeuchtigkeit
    00:00 +12°C° 0 mm 2 m/S 754 mmHg 67%
    01:00 +10°C° 0 mm 2 m/S 754 mmHg 68%
    02:00 +10°C° 0 mm 2 m/S 753 mmHg 67%
    03:00 +10°C° 0 mm 2 m/S 753 mmHg 66%
    04:00 +9°C° 0 mm 2 m/S 753 mmHg 66%
    05:00 +10°C° 0 mm 2 m/S 753 mmHg 64%
    06:00 +10°C° 0 mm 2 m/S 752 mmHg 62%
    07:00 +12°C° 0 mm 2 m/S 752 mmHg 60%
    08:00 +13°C° 0 mm 3 m/S 752 mmHg 53%
    09:00 +16°C° 0 mm 3 m/S 752 mmHg 46%
    10:00 +19°C° 0 mm 3 m/S 752 mmHg 39%
    11:00 +20°C° 0 mm 3 m/S 751 mmHg 37%
    12:00 +21°C° 0 mm 4 m/S 751 mmHg 36%
    13:00 +22°C° 0 mm 4 m/S 750 mmHg 34%
    14:00 +22°C° 0 mm 4 m/S 750 mmHg 36%
    15:00 +22°C° 0 mm 4 m/S 749 mmHg 38%
    16:00 +21°C° 0 mm 4 m/S 749 mmHg 40%
    17:00 +20°C° 0 mm 3 m/S 748 mmHg 43%
    18:00 +18°C° 0 mm 3 m/S 748 mmHg 47%
    19:00 +17°C° 0 mm 3 m/S 748 mmHg 50%
    20:00 +16°C° 0 mm 3 m/S 748 mmHg 52%
    21:00 +14°C° 0 mm 3 m/S 747 mmHg 53%
    22:00 +14°C° 0 mm 3 m/S 747 mmHg 55%
    23:00 +14°C° 0 mm 3 m/S 747 mmHg 56%

    23 September, Montag

    Zeit Temperatur Niederschläge Wind Luftdruck Luftfeuchtigkeit
    00:00 +14°C° 0 mm 2 m/S 746 mmHg 57%
    01:00 +14°C° 0 mm 2 m/S 746 mmHg 58%
    02:00 +14°C° 0 mm 2 m/S 746 mmHg 59%
    03:00 +14°C° 0 mm 2 m/S 745 mmHg 59%
    04:00 +13°C° 0 mm 2 m/S 745 mmHg 60%
    05:00 +14°C° 0 mm 2 m/S 745 mmHg 60%
    06:00 +14°C° 0 mm 2 m/S 745 mmHg 61%
    07:00 +14°C° 0 mm 2 m/S 745 mmHg 62%
    08:00 +16°C° 0 mm 3 m/S 745 mmHg 60%
    09:00 +18°C° 0 mm 4 m/S 745 mmHg 58%
    10:00 +19°C° 0 mm 5 m/S 745 mmHg 57%
    11:00 +20°C° 0 mm 6 m/S 745 mmHg 59%
    12:00 +20°C° 0 mm 6 m/S 745 mmHg 61%
    13:00 +21°C° 0 mm 7 m/S 745 mmHg 63%
    14:00 +18°C° 0 mm 7 m/S 745 mmHg 69%
    15:00 +17°C° 0 mm 7 m/S 745 mmHg 75%
    16:00 +15°C° 0 mm 6 m/S 745 mmHg 80%
    17:00 +15°C° 0.9 mm 6 m/S 745 mmHg 83%
    18:00 +14°C° 0.9 mm 6 m/S 746 mmHg 86%
    19:00 +14°C° 0.9 mm 6 m/S 746 mmHg 89%
    20:00 +13°C° 0.7 mm 5 m/S 746 mmHg 89%
    21:00 +13°C° 0.7 mm 5 m/S 746 mmHg 89%
    22:00 +13°C° 0.7 mm 4 m/S 747 mmHg 90%
    23:00 +13°C° 0.3 mm 4 m/S 747 mmHg 89%

    24 September, Dienstag

    Zeit Temperatur Niederschläge Wind Luftdruck Luftfeuchtigkeit
    00:00 +13°C° 0.3 mm 4 m/S 747 mmHg 88%
    01:00 +13°C° 0.3 mm 4 m/S 747 mmHg 87%
    02:00 +13°C° 0.2 mm 4 m/S 747 mmHg 87%
    03:00 +13°C° 0.2 mm 4 m/S 747 mmHg 87%
    04:00 +13°C° 0.2 mm 4 m/S 747 mmHg 87%
    05:00 +13°C° 0.1 mm 5 m/S 747 mmHg 86%
    06:00 +13°C° 0.1 mm 5 m/S 747 mmHg 85%
    07:00 +13°C° 0.1 mm 5 m/S 747 mmHg 84%
    08:00 +14°C° 0 mm 5 m/S 747 mmHg 78%
    09:00 +16°C° 0 mm 5 m/S 747 mmHg 71%
    10:00 +17°C° 0 mm 5 m/S 748 mmHg 65%
    11:00 +19°C° 0 mm 5 m/S 747 mmHg 60%
    12:00 +20°C° 0 mm 4 m/S 747 mmHg 56%
    13:00 +21°C° 0 mm 4 m/S 747 mmHg 51%
    14:00 +20°C° 0 mm 4 m/S 747 mmHg 55%
    15:00 +20°C° 0 mm 4 m/S 747 mmHg 60%
    16:00 +19°C° 0 mm 4 m/S 747 mmHg 64%
    17:00 +18°C° 0 mm 4 m/S 747 mmHg 70%
    18:00 +17°C° 0 mm 3 m/S 747 mmHg 76%
    19:00 +16°C° 0 mm 3 m/S 747 mmHg 82%
    20:00 +14°C° 0 mm 3 m/S 747 mmHg 84%
    21:00 +14°C° 0 mm 3 m/S 747 mmHg 86%
    22:00 +14°C° 0 mm 3 m/S 747 mmHg 88%
    23:00 +14°C° 0 mm 3 m/S 747 mmHg 88%
    Mehr zeigen